TimeEDT,TemperatureF,Dew PointF,Humidity,Sea Level PressureIn,VisibilityMPH,Wind Direction,Wind SpeedMPH,Gust SpeedMPH,PrecipitationIn,Events,Conditions,WindDirDegrees,DateUTC
12:15 AM,42.8,41.0,93,29.46,4.0,NNW,6.9,-,N/A,Rain,Light Rain,330,2014-04-08 04:15:00
12:35 AM,42.8,41.0,93,29.46,5.0,NNW,6.9,-,N/A,Rain,Rain,340,2014-04-08 04:35:00
12:55 AM,42.8,41.0,93,29.47,5.0,NNW,5.8,-,N/A,Rain,Light Rain,330,2014-04-08 04:55:00
1:15 AM,42.8,41.0,93,29.48,5.0,NW,8.1,-,N/A,Rain,Light Rain,320,2014-04-08 05:15:00
1:35 AM,42.8,41.0,93,29.48,3.0,NW,9.2,-,N/A,,Overcast,320,2014-04-08 05:35:00
1:55 AM,42.8,39.2,87,29.48,3.0,NW,8.1,-,N/A,,Overcast,310,2014-04-08 05:55:00
2:15 AM,42.8,39.2,87,29.48,2.5,NW,8.1,-,N/A,,Overcast,310,2014-04-08 06:15:00
2:35 AM,42.8,39.2,87,29.48,4.0,NW,10.4,-,N/A,Rain,Light Rain,310,2014-04-08 06:35:00
2:55 AM,42.8,39.2,87,29.49,3.0,NW,5.8,-,N/A,Rain,Light Rain,320,2014-04-08 06:55:00
3:15 AM,42.8,39.2,87,29.49,4.0,NW,4.6,-,N/A,Rain,Light Rain,310,2014-04-08 07:15:00
3:35 AM,42.8,39.2,87,29.50,4.0,WNW,4.6,-,N/A,Rain,Light Rain,300,2014-04-08 07:35:00
3:55 AM,42.8,39.2,87,29.50,4.0,WNW,5.8,-,N/A,Rain,Light Rain,300,2014-04-08 07:55:00
4:15 AM,41.0,39.2,93,29.51,4.0,WNW,4.6,-,N/A,Rain,Light Rain,300,2014-04-08 08:15:00
4:35 AM,41.0,37.4,87,29.52,5.0,WNW,4.6,-,N/A,,Overcast,290,2014-04-08 08:35:00
4:55 AM,41.0,37.4,87,29.52,5.0,WNW,5.8,-,N/A,,Mostly Cloudy,300,2014-04-08 08:55:00
5:15 AM,41.0,37.4,87,29.53,7.0,WNW,8.1,-,N/A,,Mostly Cloudy,290,2014-04-08 09:15:00
5:35 AM,41.0,35.6,81,29.54,7.0,West,6.9,-,N/A,,Overcast,280,2014-04-08 09:35:00
5:55 AM,41.0,35.6,81,29.55,10.0,West,6.9,-,N/A,,Overcast,280,2014-04-08 09:55:00
6:15 AM,41.0,35.6,81,29.56,10.0,West,6.9,-,N/A,,Overcast,270,2014-04-08 10:15:00
6:35 AM,41.0,35.6,81,29.56,10.0,West,4.6,-,N/A,,Overcast,280,2014-04-08 10:35:00
6:55 AM,41.0,35.6,81,29.57,10.0,West,6.9,-,N/A,,Overcast,280,2014-04-08 10:55:00
7:15 AM,41.0,33.8,76,29.58,10.0,West,6.9,-,N/A,,Overcast,270,2014-04-08 11:15:00
7:35 AM,41.0,33.8,76,29.59,10.0,West,6.9,-,N/A,,Overcast,270,2014-04-08 11:35:00
7:55 AM,41.0,33.8,76,29.60,10.0,West,6.9,-,N/A,,Overcast,270,2014-04-08 11:55:00
8:15 AM,42.8,35.6,76,29.61,10.0,West,9.2,-,N/A,,Mostly Cloudy,270,2014-04-08 12:15:00
8:35 AM,42.8,35.6,76,29.62,10.0,West,8.1,-,N/A,,Overcast,280,2014-04-08 12:35:00
8:55 AM,42.8,35.6,76,29.62,10.0,West,6.9,-,N/A,,Mostly Cloudy,270,2014-04-08 12:55:00
9:15 AM,44.6,37.4,76,29.63,10.0,West,6.9,-,N/A,,Scattered Clouds,280,2014-04-08 13:15:00
9:35 AM,44.6,37.4,76,29.63,10.0,WNW,8.1,-,N/A,,Clear,290,2014-04-08 13:35:00
9:55 AM,46.4,37.4,71,29.64,10.0,West,9.2,-,N/A,,Clear,280,2014-04-08 13:55:00
10:15 AM,46.4,35.6,66,29.65,10.0,West,9.2,-,N/A,,Clear,270,2014-04-08 14:15:00
10:35 AM,48.2,35.6,62,29.65,10.0,WNW,6.9,-,N/A,,Clear,300,2014-04-08 14:35:00
10:55 AM,50.0,35.6,58,29.66,10.0,WNW,6.9,-,N/A,,Scattered Clouds,290,2014-04-08 14:55:00
11:15 AM,51.8,33.8,50,29.67,10.0,NW,5.8,-,N/A,,Clear,310,2014-04-08 15:15:00
11:35 AM,51.8,35.6,54,29.67,10.0,NW,8.1,-,N/A,,Clear,320,2014-04-08 15:35:00
11:55 AM,51.8,32.0,47,29.68,10.0,NW,6.9,-,N/A,,Clear,320,2014-04-08 15:55:00
12:15 PM,53.6,33.8,47,29.68,10.0,NW,8.1,-,N/A,,Scattered Clouds,310,2014-04-08 16:15:00
12:35 PM,53.6,33.8,47,29.68,10.0,WNW,8.1,-,N/A,,Mostly Cloudy,300,2014-04-08 16:35:00
12:55 PM,51.8,33.8,50,29.68,10.0,NW,5.8,-,N/A,,Overcast,310,2014-04-08 16:55:00
1:15 PM,55.4,33.8,44,29.68,10.0,WNW,4.6,-,N/A,,Scattered Clouds,290,2014-04-08 17:15:00
1:35 PM,55.4,33.8,44,29.68,10.0,WNW,5.8,-,N/A,,Scattered Clouds,290,2014-04-08 17:35:00
1:55 PM,55.4,33.8,44,29.68,10.0,WNW,4.6,-,N/A,,Clear,290,2014-04-08 17:55:00
2:15 PM,57.2,32.0,38,29.68,10.0,WNW,6.9,-,N/A,,Scattered Clouds,290,2014-04-08 18:15:00
2:35 PM,59.0,33.8,39,29.69,10.0,NW,6.9,-,N/A,,Scattered Clouds,310,2014-04-08 18:35:00
2:55 PM,59.0,32.0,36,29.68,10.0,NW,5.8,-,N/A,,Scattered Clouds,320,2014-04-08 18:55:00
3:15 PM,59.0,32.0,36,29.68,10.0,WNW,8.1,-,N/A,,Scattered Clouds,290,2014-04-08 19:15:00
3:35 PM,59.0,32.0,36,29.68,10.0,Calm,Calm,-,N/A,,Scattered Clouds,0,2014-04-08 19:35:00
3:55 PM,60.8,32.0,34,29.68,10.0,WNW,6.9,-,N/A,,Scattered Clouds,290,2014-04-08 19:55:00
4:15 PM,59.0,32.0,36,29.68,10.0,West,6.9,-,N/A,,Mostly Cloudy,260,2014-04-08 20:15:00
4:35 PM,59.0,32.0,36,29.68,10.0,WNW,6.9,-,N/A,,Mostly Cloudy,300,2014-04-08 20:35:00
4:55 PM,59.0,32.0,36,29.68,10.0,WNW,5.8,-,N/A,,Mostly Cloudy,300,2014-04-08 20:55:00
5:15 PM,59.0,32.0,36,29.68,10.0,WNW,9.2,-,N/A,,Overcast,290,2014-04-08 21:15:00
5:35 PM,59.0,32.0,36,29.69,10.0,WNW,8.1,-,N/A,,Overcast,300,2014-04-08 21:35:00
5:55 PM,59.0,35.6,42,29.69,10.0,West,6.9,-,N/A,,Overcast,260,2014-04-08 21:55:00
6:15 PM,59.0,35.6,42,29.70,10.0,West,13.8,17.3,N/A,,Overcast,260,2014-04-08 22:15:00
6:35 PM,55.4,35.6,47,29.70,10.0,West,6.9,-,N/A,,Scattered Clouds,260,2014-04-08 22:35:00
6:55 PM,55.4,35.6,47,29.71,10.0,West,6.9,-,N/A,,Mostly Cloudy,270,2014-04-08 22:55:00
7:15 PM,57.2,35.6,44,29.71,10.0,West,8.1,-,N/A,,Overcast,270,2014-04-08 23:15:00
7:35 PM,55.4,35.6,47,29.72,10.0,West,5.8,-,N/A,,Mostly Cloudy,260,2014-04-08 23:35:00
7:55 PM,53.6,37.4,54,29.73,10.0,West,4.6,-,N/A,,Scattered Clouds,260,2014-04-08 23:55:00
8:15 PM,53.6,37.4,54,29.73,10.0,West,3.5,-,N/A,,Mostly Cloudy,260,2014-04-09 00:15:00
8:35 PM,53.6,37.4,54,29.74,10.0,West,3.5,-,N/A,,Mostly Cloudy,260,2014-04-09 00:35:00
8:55 PM,51.8,37.4,58,29.75,10.0,Calm,Calm,-,N/A,,Scattered Clouds,0,2014-04-09 00:55:00
9:15 PM,51.8,37.4,58,29.76,10.0,Calm,Calm,-,N/A,,Clear,0,2014-04-09 01:15:00
9:35 PM,50.0,37.4,62,29.77,10.0,Calm,Calm,-,N/A,,Mostly Cloudy,0,2014-04-09 01:35:00
9:55 PM,50.0,37.4,62,29.78,10.0,Calm,Calm,-,N/A,,Mostly Cloudy,0,2014-04-09 01:55:00
10:15 PM,50.0,37.4,62,29.78,10.0,West,3.5,-,N/A,,Mostly Cloudy,280,2014-04-09 02:15:00
10:35 PM,50.0,35.6,58,29.78,10.0,WNW,3.5,-,N/A,,Overcast,300,2014-04-09 02:35:00
10:55 PM,50.0,35.6,58,29.78,10.0,NW,5.8,-,N/A,,Mostly Cloudy,310,2014-04-09 02:55:00
11:15 PM,50.0,35.6,58,29.79,10.0,Calm,Calm,-,N/A,,Scattered Clouds,0,2014-04-09 03:15:00
11:35 PM,48.2,35.6,62,29.79,10.0,Calm,Calm,-,N/A,,Scattered Clouds,0,2014-04-09 03:35:00
11:55 PM,46.4,35.6,66,29.80,10.0,Calm,Calm,-,N/A,,Mostly Cloudy,0,2014-04-09 03:55:00